Ord, NE

2:56 PM CDT on August 21, 2017 (GMT -0500)
Sharp

Weather History for KODX - February, 2015

Change the Weather History Date:

Saturday, February 7, 2015

  Actual Average Record
Temperature  
Mean Temperature 46 °F 26 °F  
Max Temperature 66 °F 39 °F 68 °F (1999)
Min Temperature 26 °F 14 °F -16 °F (2004)
Degree Days  
Heating Degree Days 19 39  
Month to date heating degree days 298 273  
Since 1 July heating degree days 4271 4249  
Cooling Degree Days 0 0  
Month to date cooling degree days 0 0  
Year to date cooling degree days 0 0  
Moisture  
Dew Point 30 °F    
Average Humidity 61    
Maximum Humidity 92    
Minimum Humidity 29    
Precipitation  
Precipitation 0.00 in 0.01 in 0.23 in (1997)
Month to date precipitation 0.49 0.12  
Year to date precipitation 0.66 0.49  
Sea Level Pressure  
Sea Level Pressure 29.67 in    
Wind  
Wind Speed 7 mph (West)    
Max Wind Speed 23 mph    
Max Gust Speed 29 mph    
Visibility 10 miles    
Events      
T = Trace of Precipitation, MM = Missing Value Source: NWS Daily Summary

Daily Weather History Graph

Daily Weather History Graph

Search for Another Location

Airport or City:

Trip Planner

Search our weather history database for the weather conditions in past years. The results will help you decide how hot, cold, wet, or windy it might be!

Date:

Astronomy

Feb. 07, 2015 Rise Set
Actual Time 7:41 AM CST 5:58 PM CST
Civil Twilight 7:12 AM CST 6:27 PM CST
Nautical Twilight 6:39 AM CST 7:00 PM CST
Astronomical Twilight 6:07 AM CST 7:33 PM CST
Moon 9:47 PM CST (2/7) 9:15 AM CST (2/7)
Length of Visible Light 11h 15m
Length of Day
10h 17m
Waning Gibbous, 88% of the Moon is Illuminated
Feb 7
Waning Gibbous
Feb 11
Last Quarter
Feb 18
New
Feb 25
First Quarter
Mar 5
Full

Hourly Weather History & Observations

Time (CST) Temp. Windchill Dew Point Humidity Pressure Visibility Wind Dir Wind Speed Gust Speed Precip Events Conditions
12:53 AM 28.9 °F - 26.1 °F 89% 29.77 in 10.0 mi Calm Calm - N/A   Clear
1:53 AM 28.9 °F - 25.0 °F 85% 29.75 in 10.0 mi Calm Calm - N/A   Clear
2:53 AM 28.0 °F - 24.1 °F 85% 29.72 in 10.0 mi Calm Calm - N/A   Clear
3:53 AM 30.9 °F - 26.1 °F 82% 29.70 in 10.0 mi Calm Calm - N/A   Clear
4:53 AM 28.9 °F - 25.0 °F 85% 29.68 in 10.0 mi Calm Calm - N/A   Clear
5:53 AM 28.0 °F - 23.0 °F 81% 29.68 in 10.0 mi Calm Calm - N/A   Clear
6:53 AM 32.0 °F - 25.0 °F 75% 29.68 in 10.0 mi Calm Calm - N/A   Clear
7:53 AM 48.0 °F - 27.0 °F 44% 29.64 in 10.0 mi West 13.8 mph - N/A   Clear
8:53 AM 48.9 °F - 27.0 °F 43% 29.65 in 10.0 mi West 21.9 mph - N/A   Clear
9:53 AM 53.1 °F - 28.9 °F 40% 29.65 in 10.0 mi WNW 11.5 mph 20.7 mph N/A   Clear
10:53 AM 55.9 °F - 30.0 °F 37% 29.67 in 10.0 mi WNW 15.0 mph - N/A   Clear
11:53 AM 55.9 °F - 33.1 °F 42% 29.65 in 10.0 mi NW 16.1 mph - N/A   Clear
12:53 PM 61.0 °F - 37.9 °F 42% 29.64 in 10.0 mi NW 12.7 mph - N/A   Clear
1:53 PM 64.0 °F - 34.0 °F 33% 29.62 in 10.0 mi NW 13.8 mph - N/A   Clear
2:53 PM 64.0 °F - 34.0 °F 33% 29.63 in 10.0 mi WNW 16.1 mph - N/A   Clear
3:53 PM 66.0 °F - 33.1 °F 29% 29.63 in 10.0 mi NW 13.8 mph - N/A   Clear
4:53 PM 63.0 °F - 37.0 °F 38% 29.63 in 10.0 mi WNW 3.5 mph - N/A   Clear
5:53 PM 55.0 °F - 32.0 °F 42% 29.65 in 10.0 mi West 5.8 mph - N/A   Clear
6:53 PM 46.9 °F - 33.1 °F 59% 29.67 in 10.0 mi SSW 6.9 mph - N/A   Clear
7:53 PM 44.1 °F 40.8 °F 33.1 °F 65% 29.67 in 10.0 mi SSW 5.8 mph - N/A   Clear
8:53 PM 42.1 °F - 32.0 °F 67% 29.67 in 10.0 mi Calm Calm - N/A   Clear
9:53 PM 41.0 °F 38.0 °F 32.0 °F 70% 29.66 in 10.0 mi SW 4.6 mph - N/A   Clear
10:53 PM 39.0 °F - 30.0 °F 70% 29.66 in 10.0 mi Calm Calm - N/A   Clear
11:53 PM 48.9 °F - 30.9 °F 50% 29.64 in 10.0 mi WSW 11.5 mph - N/A   Partly Cloudy